星链-1925 (STARLINK-1925 )

导读 | 星芒AI

STARLINK-1925 是 SpaceX Starlink 项目中的一颗低轨通信卫星,属于该星座的第二批部署任务。它运行在约 550 公里的近地轨道,旨在为全球用户提供高速互联网服务。该卫星采用先进的星间激光通信技术,提高数据传输效率并减少对地面基站的依赖。作为 Starlink 计划的一部分,STARLINK-1925 有助于扩大网络覆盖范围,特别是在偏远和网络基础设施薄弱的地区。其发射和运行体现了 SpaceX 在全球宽带通信领域的持续扩展和技术革新。

基本信息
目录编号:
46756
目录名称:
STARLINK-1925
国际标识:
2020-074T
轨道中心:
EARTH
卫星名称:
星链-1925
卫星全名:
星链-1925 (STARLINK-1925 )
卫星状态:
已陨落 最后检测时间 2025-03-24
发射日期:
2020-10-24 UTC
国别 :
美国 (US)
星等 :
--
轨道信息
数据来源 国际轨道数据
星历时间: 2025-03-25T04:25:34+0800
轨道信息已过期218天
半长轴: 6522.038km
偏心率: 0.0008408
轨道倾角: 53.014°
近地点辐角 144.119°
升交点赤经 42.924°
平近点角 301.515°
近地点: 138.419km
远地点: 149.387km
周期: 87.364分钟
每日圈数: 16.48268
详细信息
固有亮度:
5
最大亮度:
2.5
卫星平台:
Starlink V1.0
覆盖范围:
全球
运营商:
太空探索技术公司
运营商所在国:
美国
制造商(研发单位):
太空探索技术公司
制造商所在国:
美国
使用方式:
暂无
卫星简介
星链(Starlink)计划是由太空探索技术公司(SpaceX)提出的一个巨型低轨卫星互联网星座项目,计划在2019年至2024年间在太空搭建由约1.2万颗卫星组成的“星链”网络,其中1584颗将部署在地球上空550千米处的近地轨道,并从2020年开始工作。该卫星仍在工作。